DLH7LW EDDM-EDDC

Flight info

Callsign DLH7LW
Flight time 0h 36m
Altitude 26000
Route AKINI1N/26R AKINI Y104 MAMOR L132 AGNAV/N0365F250 DCT SUPIL DCT KILNU L132 ABKIS Q240 DRN
Aircraft A320/M-SDE2E3FGIJ1LORWXYZ/HB1

Departure

Time 2026-05-07 19:02
Airport Munich Airport (EDDM)

Arrival

Time 2026-05-07 19:39
Airport Dresden Airport (EDDC)
Time Latitude Longitude Altitude Speed Heading
2026-05-07 18:17 48.35201 11.79342 1486 ft 0 kts 263°
2026-05-07 18:53 48.35201 11.79344 1485 ft 2 kts 263°
2026-05-07 18:53 48.35203 11.79368 1472 ft 2 kts 264°
2026-05-07 18:53 48.35205 11.79393 1480 ft 2 kts 263°
2026-05-07 18:53 48.35207 11.79417 1473 ft 2 kts 264°
2026-05-07 18:54 48.35209 11.79442 1471 ft 2 kts 266°
2026-05-07 18:54 48.35210 11.79467 1471 ft 2 kts 272°
2026-05-07 18:54 48.35207 11.79492 1474 ft 2 kts 322°
2026-05-07 18:54 48.35198 11.79499 1472 ft 1 kts 354°
2026-05-07 18:55 48.35197 11.79499 1472 ft 0 kts 353°
2026-05-07 18:56 48.35200 11.79498 1478 ft 1 kts 355°
2026-05-07 18:56 48.35233 11.79523 1474 ft 11 kts 33°
2026-05-07 18:56 48.35316 11.79545 1460 ft 14 kts 353°
2026-05-07 18:57 48.35431 11.79526 1475 ft 19 kts 353°
2026-05-07 18:57 48.35580 11.79499 1478 ft 23 kts 354°
2026-05-07 18:57 48.35729 11.79473 1475 ft 17 kts 353°
2026-05-07 18:57 48.35854 11.79451 1478 ft 16 kts 353°
2026-05-07 18:58 48.35943 11.79500 1483 ft 14 kts 16°
2026-05-07 18:58 48.36048 11.79486 1485 ft 17 kts 352°
2026-05-07 18:58 48.36170 11.79464 1473 ft 17 kts 354°
2026-05-07 18:58 48.36223 11.79588 1474 ft 17 kts 83°
2026-05-07 18:59 48.36238 11.79773 1477 ft 19 kts 83°
2026-05-07 18:59 48.36254 11.79987 1485 ft 22 kts 84°
2026-05-07 18:59 48.36273 11.80226 1485 ft 24 kts 83°
2026-05-07 18:59 48.36292 11.80481 1480 ft 25 kts 83°
2026-05-07 19:00 48.36313 11.80752 1477 ft 27 kts 83°
2026-05-07 19:00 48.36334 11.81032 1485 ft 26 kts 83°
2026-05-07 19:00 48.36361 11.81206 1477 ft 12 kts 45°
2026-05-07 19:00 48.36426 11.81160 1481 ft 13 kts 296°
2026-05-07 19:01 48.36460 11.81037 1479 ft 13 kts 293°
2026-05-07 19:01 48.36489 11.80937 1478 ft 11 kts 294°
2026-05-07 19:01 48.36543 11.80754 1474 ft 24 kts 294°
2026-05-07 19:01 48.36567 11.80552 1472 ft 15 kts 262°
2026-05-07 19:02 48.36542 11.80219 1485 ft 66 kts 263°
2026-05-07 19:02 48.36461 11.79174 1482 ft 132 kts 263°
2026-05-07 19:02 48.36334 11.77567 1687 ft 165 kts 264°
2026-05-07 19:02 48.36190 11.75860 2485 ft 165 kts 265°
2026-05-07 19:03 48.36060 11.74105 3065 ft 178 kts 265°
2026-05-07 19:03 48.35924 11.72155 3478 ft 198 kts 265°
2026-05-07 19:03 48.35804 11.69965 3832 ft 222 kts 274°
2026-05-07 19:03 48.36249 11.67720 4623 ft 229 kts 301°
2026-05-07 19:04 48.37350 11.65996 5557 ft 233 kts 327°
2026-05-07 19:04 48.38884 11.65171 6475 ft 240 kts 346°
2026-05-07 19:04 48.40600 11.64641 6959 ft 263 kts 346°
2026-05-07 19:04 48.42433 11.64092 7707 ft 273 kts 346°
2026-05-07 19:05 48.44328 11.63628 8597 ft 280 kts 353°
2026-05-07 19:05 48.46295 11.63971 9489 ft 293 kts 15°
2026-05-07 19:05 48.48127 11.65422 10316 ft 304 kts 30°
2026-05-07 19:05 48.49963 11.67240 10684 ft 328 kts 31°
2026-05-07 19:06 48.51895 11.69204 11295 ft 339 kts 32°
2026-05-07 19:06 48.55842 11.73287 12945 ft 348 kts 32°
2026-05-07 19:06 48.57854 11.75366 13753 ft 352 kts 32°
2026-05-07 19:07 48.59890 11.77458 14488 ft 356 kts 31°
2026-05-07 19:07 48.61953 11.79570 15209 ft 359 kts 31°
2026-05-07 19:07 48.64032 11.81691 15933 ft 363 kts 31°
2026-05-07 19:07 48.66131 11.83835 16651 ft 366 kts 31°
2026-05-07 19:08 48.68251 11.86001 17365 ft 369 kts 31°
2026-05-07 19:08 48.70385 11.88188 18087 ft 372 kts 31°
2026-05-07 19:08 48.72540 11.90402 18739 ft 376 kts 31°
2026-05-07 19:08 48.74712 11.92637 19358 ft 379 kts 31°
2026-05-07 19:09 48.76899 11.94887 19980 ft 381 kts 31°
2026-05-07 19:09 48.79101 11.97160 20597 ft 384 kts 31°
2026-05-07 19:09 48.81321 11.99450 21201 ft 387 kts 31°
2026-05-07 19:09 48.83554 12.01756 21801 ft 390 kts 31°
2026-05-07 19:10 48.85807 12.04086 22392 ft 393 kts 31°
2026-05-07 19:10 48.88074 12.06431 22950 ft 396 kts 31°
2026-05-07 19:10 48.90354 12.08790 23534 ft 399 kts 31°
2026-05-07 19:10 48.92655 12.11175 24026 ft 401 kts 31°
2026-05-07 19:11 48.94969 12.13580 24492 ft 404 kts 31°
2026-05-07 19:11 48.97294 12.16001 24959 ft 406 kts 31°
2026-05-07 19:11 48.99632 12.18436 25418 ft 408 kts 31°
2026-05-07 19:11 49.01983 12.20882 25867 ft 411 kts 31°
2026-05-07 19:12 49.04346 12.23348 26043 ft 411 kts 31°
2026-05-07 19:12 49.06651 12.25768 26072 ft 394 kts 31°
2026-05-07 19:12 49.08881 12.28115 26074 ft 386 kts 31°
2026-05-07 19:12 49.11082 12.30427 26074 ft 383 kts 31°
2026-05-07 19:13 49.13277 12.32728 26075 ft 382 kts 31°
2026-05-07 19:13 49.15467 12.35022 26071 ft 382 kts 31°
2026-05-07 19:13 49.17656 12.37319 26075 ft 382 kts 31°
2026-05-07 19:13 49.19814 12.39588 26072 ft 381 kts 31°
2026-05-07 19:14 49.21997 12.41885 26068 ft 381 kts 31°
2026-05-07 19:14 49.24182 12.44186 26067 ft 381 kts 31°
2026-05-07 19:14 49.26364 12.46489 26063 ft 381 kts 31°
2026-05-07 19:14 49.28544 12.48797 26066 ft 381 kts 31°
2026-05-07 19:15 49.30724 12.51107 26062 ft 381 kts 31°
2026-05-07 19:15 49.32978 12.53197 26059 ft 377 kts 22°
2026-05-07 19:15 49.35407 12.54643 26060 ft 373 kts 12°
2026-05-07 19:15 49.37931 12.55511 26055 ft 371 kts
2026-05-07 19:16 49.40460 12.56300 26059 ft 371 kts
2026-05-07 19:16 49.42995 12.57096 26048 ft 371 kts
2026-05-07 19:16 49.45522 12.57895 26049 ft 371 kts
2026-05-07 19:16 49.48051 12.58693 26047 ft 371 kts
2026-05-07 19:17 49.50579 12.59491 26055 ft 371 kts
2026-05-07 19:17 49.53111 12.60289 26044 ft 371 kts
2026-05-07 19:17 49.55638 12.61083 26051 ft 371 kts
2026-05-07 19:17 49.58170 12.61852 26050 ft 371 kts
2026-05-07 19:18 49.60707 12.62523 26047 ft 370 kts
2026-05-07 19:18 49.63268 12.63139 26044 ft 370 kts
2026-05-07 19:18 49.65794 12.63720 26046 ft 369 kts
2026-05-07 19:18 49.68335 12.64304 26051 ft 369 kts
2026-05-07 19:19 49.70879 12.64899 26051 ft 369 kts
2026-05-07 19:19 49.73421 12.65503 26049 ft 369 kts
2026-05-07 19:19 49.75955 12.66117 26050 ft 369 kts
2026-05-07 19:19 49.78490 12.66738 26050 ft 369 kts
2026-05-07 19:20 49.81020 12.67362 26052 ft 368 kts
2026-05-07 19:20 49.83547 12.67986 26060 ft 368 kts
2026-05-07 19:20 49.86075 12.68611 26052 ft 368 kts
2026-05-07 19:20 49.88601 12.69239 26056 ft 367 kts
2026-05-07 19:21 49.90286 12.69657 26058 ft 367 kts
2026-05-07 19:21 49.92797 12.70276 26059 ft 367 kts
2026-05-07 19:21 49.95316 12.70893 26062 ft 367 kts
2026-05-07 19:21 49.97836 12.71512 26065 ft 367 kts
2026-05-07 19:22 50.00402 12.72142 26058 ft 382 kts
2026-05-07 19:22 50.03032 12.72792 26052 ft 382 kts
2026-05-07 19:22 50.05659 12.73448 26059 ft 382 kts
2026-05-07 19:22 50.08284 12.74103 26054 ft 382 kts
2026-05-07 19:23 50.10906 12.74754 26057 ft 382 kts
2026-05-07 19:23 50.13529 12.75406 26055 ft 381 kts
2026-05-07 19:23 50.16149 12.76060 26055 ft 381 kts
2026-05-07 19:23 50.18768 12.76714 26055 ft 382 kts
2026-05-07 19:24 50.21405 12.77370 25356 ft 387 kts
2026-05-07 19:24 50.24053 12.78028 24967 ft 380 kts
2026-05-07 19:24 50.26636 12.78675 24595 ft 373 kts
2026-05-07 19:24 50.29184 12.79320 24137 ft 368 kts
2026-05-07 19:25 50.31703 12.79956 23625 ft 363 kts
2026-05-07 19:25 50.34183 12.80578 22712 ft 359 kts
2026-05-07 19:25 50.36625 12.81328 21871 ft 358 kts 14°
2026-05-07 19:25 50.38915 12.82848 21079 ft 358 kts 27°
2026-05-07 19:26 50.41044 12.84843 20274 ft 356 kts 29°
2026-05-07 19:26 50.43155 12.86843 19515 ft 354 kts 29°
2026-05-07 19:26 50.45253 12.88840 18785 ft 352 kts 30°
2026-05-07 19:26 50.47341 12.90825 18029 ft 349 kts 30°
2026-05-07 19:27 50.49411 12.92793 17258 ft 346 kts 30°
2026-05-07 19:27 50.51462 12.94745 16524 ft 343 kts 30°
2026-05-07 19:27 50.53495 12.96680 15833 ft 340 kts 30°
2026-05-07 19:27 50.55512 12.98598 15227 ft 338 kts 30°
2026-05-07 19:28 50.57515 13.00503 14747 ft 336 kts 30°
2026-05-07 19:28 50.59508 13.02401 14250 ft 334 kts 30°
2026-05-07 19:28 50.61482 13.04285 13840 ft 330 kts 30°
2026-05-07 19:28 50.63381 13.06286 13396 ft 328 kts 39°
2026-05-07 19:29 50.65086 13.08652 13010 ft 326 kts 40°
2026-05-07 19:29 50.66773 13.11009 12615 ft 323 kts 40°
2026-05-07 19:29 50.68454 13.13351 12224 ft 321 kts 40°
2026-05-07 19:29 50.70123 13.15676 11841 ft 319 kts 40°
2026-05-07 19:30 50.71783 13.17991 11433 ft 318 kts 40°
2026-05-07 19:30 50.73434 13.20290 11045 ft 316 kts 40°
2026-05-07 19:30 50.75080 13.22585 10642 ft 314 kts 41°
2026-05-07 19:30 50.76715 13.24870 10229 ft 313 kts 41°
2026-05-07 19:31 50.78349 13.27156 9818 ft 312 kts 41°
2026-05-07 19:31 50.79943 13.29391 9667 ft 301 kts 41°
2026-05-07 19:31 50.81464 13.31528 9133 ft 294 kts 41°
2026-05-07 19:31 50.82979 13.33658 8550 ft 288 kts 41°
2026-05-07 19:32 50.84468 13.35752 8115 ft 285 kts 41°
2026-05-07 19:32 50.85947 13.37835 7682 ft 284 kts 40°
2026-05-07 19:32 50.87377 13.39975 7295 ft 282 kts 44°
2026-05-07 19:32 50.88739 13.42209 6917 ft 282 kts 47°
2026-05-07 19:33 50.89967 13.44584 6660 ft 278 kts 46°
2026-05-07 19:33 50.91359 13.46702 6319 ft 277 kts 39°
2026-05-07 19:33 50.92831 13.48657 5942 ft 275 kts 39°
2026-05-07 19:33 50.94286 13.50604 5564 ft 272 kts 39°
2026-05-07 19:34 50.95715 13.52548 5193 ft 268 kts 39°
2026-05-07 19:34 50.97095 13.54432 4842 ft 255 kts 39°
2026-05-07 19:34 50.98425 13.56244 4487 ft 243 kts 39°
2026-05-07 19:34 50.99677 13.57952 4169 ft 234 kts 39°
2026-05-07 19:35 51.00901 13.59621 3856 ft 231 kts 39°
2026-05-07 19:35 51.02099 13.61257 3546 ft 229 kts 40°
2026-05-07 19:35 51.03287 13.62881 3232 ft 220 kts 40°
2026-05-07 19:35 51.04424 13.64436 2939 ft 212 kts 40°
2026-05-07 19:36 51.05518 13.65935 2657 ft 202 kts 40°
2026-05-07 19:36 51.06538 13.67331 2408 ft 185 kts 39°
2026-05-07 19:36 51.07479 13.68621 2157 ft 172 kts 39°
2026-05-07 19:36 51.08359 13.69829 1920 ft 157 kts 39°
2026-05-07 19:37 51.09139 13.70898 1699 ft 141 kts 39°
2026-05-07 19:37 51.09861 13.71890 1481 ft 134 kts 40°
2026-05-07 19:37 51.10561 13.72848 1295 ft 131 kts 40°
2026-05-07 19:37 51.11257 13.73799 1114 ft 132 kts 39°
2026-05-07 19:38 51.11957 13.74758 924 ft 135 kts 40°
2026-05-07 19:38 51.12665 13.75746 737 ft 135 kts 40°
2026-05-07 19:38 51.13290 13.76604 716 ft 100 kts 42°
2026-05-07 19:38 51.13748 13.77227 714 ft 75 kts 41°
2026-05-07 19:39 51.14066 13.77662 713 ft 51 kts 41°
2026-05-07 19:39 51.14290 13.77972 715 ft 34 kts 41°
2026-05-07 19:39 51.14380 13.78141 716 ft 12 kts 93°
2026-05-07 19:39 51.14315 13.78275 712 ft 19 kts 130°
2026-05-07 19:40 51.14240 13.78366 712 ft 9 kts 175°
2026-05-07 19:40 51.14203 13.78337 713 ft 4 kts 225°
2026-05-07 19:40 51.14158 13.78273 714 ft 12 kts 220°
2026-05-07 19:40 51.14093 13.78184 715 ft 13 kts 221°
2026-05-07 19:41 51.14004 13.78060 714 ft 20 kts 221°
2026-05-07 19:41 51.13903 13.77925 714 ft 17 kts 220°
2026-05-07 19:41 51.13826 13.77817 714 ft 15 kts 220°
2026-05-07 19:41 51.13734 13.77691 714 ft 21 kts 222°
2026-05-07 19:42 51.13620 13.77535 713 ft 22 kts 221°
2026-05-07 19:42 51.13498 13.77367 712 ft 24 kts 221°
2026-05-07 19:42 51.13369 13.77188 713 ft 25 kts 222°
2026-05-07 19:42 51.13243 13.77014 715 ft 23 kts 220°
2026-05-07 19:43 51.13123 13.76852 714 ft 22 kts 220°
2026-05-07 19:43 51.13013 13.76699 713 ft 20 kts 221°
2026-05-07 19:43 51.12913 13.76564 712 ft 17 kts 221°
2026-05-07 19:43 51.12858 13.76487 715 ft 6 kts 221°
2026-05-07 19:44 51.12821 13.76443 711 ft 9 kts 201°
2026-05-07 19:44 51.12775 13.76481 713 ft 7 kts 153°
2026-05-07 19:44 51.12733 13.76448 714 ft 12 kts 222°
2026-05-07 19:44 51.12674 13.76365 715 ft 8 kts 218°
2026-05-07 19:45 51.12645 13.76373 714 ft 3 kts 131°
2026-05-07 19:45 51.12630 13.76399 713 ft 1 kts 130°
2026-05-07 19:45 51.12630 13.76400 713 ft 0 kts 130°